| time (UTC) | temp F | wind direction | speed MPH | gust MPH | rain 1hr in | rain 24hr in | rain mn in | humidity % | barometer mb |
| 20260901205030 | 95 | 144 | 2.0 | 6.0 | 0.00 | 0.00 | 0.00 | 48 | 1018.0 |
| 20260901204546 | 96 | 82 | 3.0 | 6.0 | 0.00 | 0.00 | 0.00 | 47 | 1017.9 |
| 20260901204025 | 96 | 89 | 2.0 | 5.0 | 0.00 | 0.00 | 0.00 | 45 | 1017.9 |
| 20260901203526 | 96 | 114 | 3.0 | 5.0 | 0.00 | 0.00 | 0.00 | 47 | 1018.0 |
| 20260901203055 | 96 | 102 | 2.0 | 5.0 | 0.00 | 0.00 | 0.00 | 47 | 1018.2 |
| 20260901202525 | 96 | 170 | 3.0 | 6.0 | 0.00 | 0.00 | 0.00 | 49 | 1018.2 |
| 20260901202026 | 95 | 138 | 3.0 | 6.0 | 0.00 | 0.00 | 0.00 | 48 | 1018.3 |
| 20260901201548 | 94 | 136 | 2.0 | 6.0 | 0.00 | 0.00 | 0.00 | 49 | 1018.4 |
| 20260901201031 | 94 | 95 | 2.0 | 5.0 | 0.00 | 0.00 | 0.00 | 48 | 1018.5 |
| 20260901200525 | 95 | 98 | 2.0 | 4.0 | 0.00 | 0.00 | 0.00 | 49 | 1018.4 |
| 20260901200107 | 96 | 107 | 0.0 | 3.0 | 0.00 | 0.00 | 0.00 | 47 | 1018.6 |
| 20260901195525 | 96 | 59 | 1.0 | 6.0 | 0.00 | 0.00 | 0.00 | 44 | 1018.4 |
| 20260901195024 | 96 | 37 | 1.0 | 6.0 | 0.00 | 0.00 | 0.00 | 47 | 1018.5 |
| 20260901194546 | 96 | 94 | 1.0 | 5.0 | 0.00 | 0.00 | 0.00 | 46 | 1018.6 |
| 20260901194028 | 94 | 36 | 0.0 | 5.0 | 0.00 | 0.00 | 0.00 | 48 | 1018.7 |
| 20260901193523 | 94 | 352 | 2.0 | 5.0 | 0.00 | 0.00 | 0.00 | 46 | 1018.8 |
| 20260901193052 | 94 | 39 | 1.0 | 3.0 | 0.00 | 0.00 | 0.00 | 47 | 1018.9 |
| 20260901192524 | 93 | 0 | 0.0 | 5.0 | 0.00 | 0.00 | 0.00 | 48 | 1018.9 |
| 20260901192025 | 94 | 115 | 2.0 | 7.0 | 0.00 | 0.00 | 0.00 | 49 | 1018.9 |
| 20260901191558 | 94 | 82 | 3.0 | 7.0 | 0.00 | 0.00 | 0.00 | 47 | 1019.0 |
| 20260901191027 | 95 | 103 | 3.0 | 7.0 | 0.00 | 0.00 | 0.00 | 47 | 1019.0 |
| 20260901190528 | 96 | 96 | 2.0 | 7.0 | 0.00 | 0.00 | 0.00 | 47 | 1019.0 |
| 20260901190043 | 96 | 58 | 2.0 | 7.0 | 0.00 | 0.00 | 0.00 | 49 | 1019.1 |
| 20260901185525 | 96 | 97 | 3.0 | 7.0 | 0.00 | 0.00 | 0.00 | 47 | 1019.1 |
| 20260901185026 | 95 | 97 | 0.0 | 4.0 | 0.00 | 0.00 | 0.00 | 48 | 1019.2 |
| 20260901184547 | 95 | 13 | 0.0 | 4.0 | 0.00 | 0.00 | 0.00 | 49 | 1019.2 |
| 20260901184024 | 95 | 76 | 3.0 | 4.0 | 0.00 | 0.00 | 0.00 | 48 | 1019.3 |
| 20260901183526 | 95 | 92 | 1.0 | 3.0 | 0.00 | 0.00 | 0.00 | 49 | 1019.4 |
| 20260901183050 | 96 | 70 | 1.0 | 3.0 | 0.00 | 0.00 | 0.00 | 47 | 1019.5 |
| 20260901182525 | 95 | 142 | 1.0 | 2.0 | 0.00 | 0.00 | 0.00 | 50 | 1019.5 |
| 20260901182029 | 93 | 191 | 1.0 | 5.0 | 0.00 | 0.00 | 0.00 | 51 | 1019.6 |
| 20260901181558 | 94 | 275 | 3.0 | 10.0 | 0.00 | 0.00 | 0.00 | 53 | 1019.6 |
| 20260901181024 | 93 | 10 | 3.0 | 10.0 | 0.00 | 0.00 | 0.00 | 51 | 1019.6 |
| 20260901180526 | 94 | 354 | 3.0 | 8.0 | 0.00 | 0.00 | 0.00 | 51 | 1019.7 |
| 20260901180048 | 94 | 337 | 2.0 | 5.0 | 0.00 | 0.00 | 0.00 | 52 | 1019.7 |
| 20260901175529 | 93 | 11 | 0.0 | 6.0 | 0.00 | 0.00 | 0.00 | 52 | 1019.7 |
| 20260901175027 | 92 | 227 | 1.0 | 6.0 | 0.00 | 0.00 | 0.00 | 56 | 1019.7 |
| 20260901174549 | 92 | 74 | 1.0 | 5.0 | 0.00 | 0.00 | 0.00 | 53 | 1019.8 |
| 20260901174025 | 93 | 90 | 1.0 | 6.0 | 0.00 | 0.00 | 0.00 | 54 | 1019.9 |
| 20260901173527 | 93 | 169 | 3.0 | 6.0 | 0.00 | 0.00 | 0.00 | 54 | 1020.0 |
| 20260901173059 | 93 | 175 | 2.0 | 6.0 | 0.00 | 0.00 | 0.00 | 54 | 1020.1 |
| 20260901172524 | 93 | 346 | 1.0 | 6.0 | 0.00 | 0.00 | 0.00 | 53 | 1020.2 |
| 20260901172028 | 93 | 100 | 1.0 | 6.0 | 0.00 | 0.00 | 0.00 | 55 | 1020.2 |
| 20260901171559 | 93 | 108 | 3.0 | 6.0 | 0.00 | 0.00 | 0.00 | 53 | 1020.3 |
| 20260901171025 | 92 | 155 | 2.0 | 6.0 | 0.00 | 0.00 | 0.00 | 55 | 1020.4 |
| 20260901170529 | 92 | 300 | 1.0 | 3.0 | 0.00 | 0.00 | 0.00 | 56 | 1020.3 |
| 20260901170048 | 92 | 352 | 1.0 | 6.0 | 0.00 | 0.00 | 0.00 | 55 | 1020.5 |
| 20260901165527 | 91 | 313 | 1.0 | 6.0 | 0.00 | 0.00 | 0.00 | 56 | 1020.5 |
| 20260901165029 | 91 | 281 | 1.0 | 4.0 | 0.00 | 0.00 | 0.00 | 55 | 1020.7 |
| 20260901164610 | 92 | 329 | 2.0 | 4.0 | 0.00 | 0.00 | 0.00 | 55 | 1020.7 |
| 20260901164024 | 91 | 350 | 2.0 | 4.0 | 0.00 | 0.00 | 0.00 | 56 | 1020.7 |
| 20260901163527 | 91 | 260 | 1.0 | 3.0 | 0.00 | 0.00 | 0.00 | 56 | 1020.7 |
| 20260901163051 | 91 | 292 | 1.0 | 4.0 | 0.00 | 0.00 | 0.00 | 57 | 1020.7 |
| 20260901162523 | 91 | 137 | 1.0 | 5.0 | 0.00 | 0.00 | 0.00 | 57 | 1020.7 |
| 20260901162027 | 90 | 144 | 2.0 | 5.0 | 0.00 | 0.00 | 0.00 | 57 | 1020.7 |
| 20260901161606 | 91 | 127 | 2.0 | 5.0 | 0.00 | 0.00 | 0.00 | 57 | 1020.9 |
| 20260901161024 | 90 | 128 | 1.0 | 4.0 | 0.00 | 0.00 | 0.00 | 59 | 1021.0 |
| 20260901160529 | 89 | 20 | 0.0 | 4.0 | 0.00 | 0.00 | 0.00 | 60 | 1021.1 |
| 20260901160047 | 89 | 98 | 2.0 | 6.0 | 0.00 | 0.00 | 0.00 | 60 | 1021.1 |
| 20260901155524 | 89 | 65 | 1.0 | 6.0 | 0.00 | 0.00 | 0.00 | 62 | 1021.1 |
| 20260901155024 | 89 | 119 | 2.0 | 6.0 | 0.00 | 0.00 | 0.00 | 60 | 1021.1 |
| 20260901154555 | 89 | 154 | 1.0 | 3.0 | 0.00 | 0.00 | 0.00 | 62 | 1021.1 |
| 20260901154024 | 88 | 100 | 1.0 | 3.0 | 0.00 | 0.00 | 0.00 | 65 | 1021.1 |
| 20260901153527 | 87 | 259 | 0.0 | 2.0 | 0.00 | 0.00 | 0.00 | 65 | 1021.1 |
| 20260901153055 | 87 | 300 | 1.0 | 3.0 | 0.00 | 0.00 | 0.00 | 67 | 1021.2 |
| 20260901152524 | 87 | 298 | 1.0 | 3.0 | 0.00 | 0.00 | 0.00 | 67 | 1021.2 |
| 20260901152025 | 87 | 59 | 1.0 | 5.0 | 0.00 | 0.00 | 0.00 | 68 | 1021.3 |
| 20260901151547 | 87 | 0 | 2.0 | 5.0 | 0.00 | 0.00 | 0.00 | 69 | 1021.4 |
| 20260901151030 | 86 | 118 | 0.0 | 4.0 | 0.00 | 0.00 | 0.00 | 70 | 1021.3 |
| 20260901150528 | 85 | 118 | 1.0 | 4.0 | 0.00 | 0.00 | 0.00 | 71 | 1021.4 |
| 20260901150046 | 85 | 91 | 1.0 | 4.0 | 0.00 | 0.00 | 0.00 | 72 | 1021.5 |
| 20260901145526 | 85 | 162 | 1.0 | 3.0 | 0.00 | 0.00 | 0.00 | 72 | 1021.5 |
| 20260901145028 | 84 | 0 | 0.0 | 2.0 | 0.00 | 0.00 | 0.00 | 74 | 1021.5 |
| 20260901144550 | 83 | 59 | 1.0 | 2.0 | 0.00 | 0.00 | 0.00 | 76 | 1021.6 |
| 20260901144026 | 83 | 60 | 0.0 | 2.0 | 0.00 | 0.00 | 0.00 | 75 | 1021.5 |
| 20260901143525 | 83 | 344 | 0.0 | 2.0 | 0.00 | 0.00 | 0.00 | 75 | 1021.5 |
| 20260901143049 | 82 | 0 | 0.0 | 3.0 | 0.00 | 0.00 | 0.00 | 76 | 1021.5 |
| 20260901142525 | 82 | 65 | 0.0 | 3.0 | 0.00 | 0.00 | 0.00 | 77 | 1021.5 |
| 20260901142026 | 81 | 307 | 0.0 | 2.0 | 0.00 | 0.00 | 0.00 | 78 | 1021.5 |
| 20260901141550 | 80 | 348 | 0.0 | 2.0 | 0.00 | 0.00 | 0.00 | 80 | 1021.5 |
| 20260901141024 | 79 | 351 | 1.0 | 2.0 | 0.00 | 0.00 | 0.00 | 84 | 1021.4 |
| 20260901140525 | 78 | 129 | 0.0 | 3.0 | 0.00 | 0.00 | 0.00 | 84 | 1021.3 |
| 20260901140047 | 77 | 68 | 0.0 | 3.0 | 0.00 | 0.00 | 0.00 | 85 | 1021.4 |
| 20260901135525 | 77 | 348 | 1.0 | 3.0 | 0.00 | 0.00 | 0.00 | 86 | 1021.3 |
| 20260901135026 | 76 | 2 | 1.0 | 2.0 | 0.00 | 0.00 | 0.00 | 87 | 1021.4 |
| 20260901134545 | 76 | 54 | 1.0 | 2.0 | 0.00 | 0.00 | 0.00 | 88 | 1021.5 |
| 20260901134119 | 75 | 0 | 0.0 | 2.0 | 0.00 | 0.00 | 0.00 | 88 | 1021.4 |
| 20260901133524 | 75 | 10 | 0.0 | 2.0 | 0.00 | 0.00 | 0.00 | 89 | 1021.3 |
| 20260901133048 | 75 | 0 | 0.0 | 2.0 | 0.00 | 0.00 | 0.00 | 90 | 1021.2 |
| 20260901132526 | 74 | 352 | 0.0 | 2.0 | 0.00 | 0.00 | 0.00 | 90 | 1021.3 |
| 20260901132025 | 74 | 0 | 0.0 | 2.0 | 0.00 | 0.00 | 0.00 | 90 | 1021.3 |
| 20260901131546 | 73 | 0 | 0.0 | 2.0 | 0.00 | 0.00 | 0.00 | 90 | 1021.4 |
| 20260901131030 | 73 | 0 | 0.0 | 2.0 | 0.00 | 0.00 | 0.00 | 91 | 1021.4 |
| 20260901130524 | 73 | 69 | 0.0 | 2.0 | 0.00 | 0.00 | 0.00 | 91 | 1021.3 |
| 20260901130056 | 72 | 54 | 0.0 | 2.0 | 0.00 | 0.00 | 0.00 | 91 | 1021.3 |
| 20260901125525 | 72 | 0 | 1.0 | 2.0 | 0.00 | 0.00 | 0.00 | 91 | 1021.3 |
| 20260901125024 | 72 | 126 | 0.0 | 2.0 | 0.00 | 0.00 | 0.00 | 91 | 1021.3 |
| 20260901124549 | 71 | 0 | 0.0 | 1.0 | 0.00 | 0.00 | 0.00 | 91 | 1021.3 |
| 20260901124025 | 71 | 0 | 0.0 | 0.0 | 0.00 | 0.00 | 0.00 | 92 | 1021.3 |
| 20260901123525 | 71 | 0 | 0.0 | 0.0 | 0.00 | 0.00 | 0.00 | 91 | 1021.2 |
| 20260901123049 | 71 | 0 | 0.0 | 2.0 | 0.00 | 0.00 | 0.00 | 91 | 1021.1 |
| 20260901122525 | 70 | 0 | 0.0 | 2.0 | 0.00 | 0.00 | 0.00 | 92 | 1021.1 |
| 20260901122025 | 70 | 0 | 0.0 | 2.0 | 0.00 | 0.00 | 0.00 | 92 | 1021.0 |
| 20260901121547 | 70 | 129 | 0.0 | 3.0 | 0.00 | 0.00 | 0.00 | 91 | 1021.0 |
| 20260901121026 | 70 | 172 | 1.0 | 4.0 | 0.00 | 0.00 | 0.00 | 92 | 1021.0 |
| 20260901120524 | 70 | 106 | 2.0 | 4.0 | 0.00 | 0.00 | 0.00 | 92 | 1020.9 |
| 20260901120046 | 70 | 127 | 2.0 | 3.0 | 0.00 | 0.00 | 0.00 | 92 | 1020.9 |
| 20260901115527 | 69 | 115 | 1.0 | 2.0 | 0.00 | 0.00 | 0.00 | 91 | 1020.8 |
| 20260901115025 | 69 | 146 | 1.0 | 2.0 | 0.00 | 0.00 | 0.00 | 91 | 1020.7 |
| 20260901114622 | 69 | 135 | 0.0 | 2.0 | 0.00 | 0.00 | 0.00 | 91 | 1020.7 |
| 20260901114024 | 69 | 131 | 0.0 | 2.0 | 0.00 | 0.00 | 0.00 | 91 | 1020.5 |
| 20260901113528 | 69 | 150 | 0.0 | 2.0 | 0.00 | 0.00 | 0.00 | 91 | 1020.5 |
| 20260901113051 | 69 | 0 | 0.0 | 2.0 | 0.00 | 0.00 | 0.00 | 91 | 1020.5 |
| 20260901112523 | 69 | 150 | 1.0 | 2.0 | 0.00 | 0.00 | 0.00 | 91 | 1020.5 |
| 20260901112025 | 69 | 128 | 1.0 | 1.0 | 0.00 | 0.00 | 0.00 | 91 | 1020.4 |
| 20260901111551 | 69 | 103 | 1.0 | 1.0 | 0.00 | 0.00 | 0.00 | 91 | 1020.3 |
| 20260901111028 | 69 | 103 | 0.0 | 2.0 | 0.00 | 0.00 | 0.00 | 91 | 1020.1 |
| 20260901110526 | 69 | 103 | 0.0 | 2.0 | 0.00 | 0.00 | 0.00 | 91 | 1020.1 |
| 20260901110048 | 69 | 106 | 1.0 | 2.0 | 0.00 | 0.00 | 0.00 | 91 | 1020.0 |
| 20260901105524 | 69 | 150 | 0.0 | 2.0 | 0.00 | 0.00 | 0.00 | 91 | 1019.8 |
| 20260901105029 | 69 | 0 | 0.0 | 2.0 | 0.00 | 0.00 | 0.00 | 91 | 1019.9 |
| 20260901104545 | 69 | 175 | 0.0 | 2.0 | 0.00 | 0.00 | 0.00 | 91 | 1019.8 |
| 20260901104025 | 69 | 0 | 0.0 | 1.0 | 0.00 | 0.00 | 0.00 | 91 | 1019.8 |
| 20260901103525 | 69 | 0 | 0.0 | 0.0 | 0.00 | 0.00 | 0.00 | 91 | 1019.8 |
| 20260901103053 | 69 | 0 | 0.0 | 0.0 | 0.00 | 0.00 | 0.00 | 91 | 1019.8 |
| 20260901102523 | 69 | 0 | 0.0 | 0.0 | 0.00 | 0.00 | 0.00 | 91 | 1019.7 |
| 20260901102026 | 69 | 0 | 0.0 | 0.0 | 0.00 | 0.00 | 0.00 | 91 | 1019.7 |
| 20260901101550 | 69 | 0 | 0.0 | 0.0 | 0.00 | 0.00 | 0.00 | 91 | 1019.7 |
| 20260901101027 | 70 | 0 | 0.0 | 0.0 | 0.00 | 0.00 | 0.00 | 91 | 1019.7 |
| 20260901100526 | 70 | 0 | 0.0 | 0.0 | 0.00 | 0.00 | 0.00 | 91 | 1019.6 |
| 20260901100051 | 70 | 0 | 0.0 | 0.0 | 0.00 | 0.00 | 0.00 | 90 | 1019.7 |
| 20260901095525 | 70 | 0 | 0.0 | 0.0 | 0.00 | 0.00 | 0.00 | 90 | 1019.6 |
| 20260901095024 | 70 | 0 | 0.0 | 0.0 | 0.00 | 0.00 | 0.00 | 90 | 1019.6 |
| 20260901094547 | 70 | 0 | 0.0 | 0.0 | 0.00 | 0.00 | 0.00 | 90 | 1019.6 |
| 20260901094024 | 70 | 0 | 0.0 | 0.0 | 0.00 | 0.00 | 0.00 | 90 | 1019.7 |
| 20260901093524 | 70 | 0 | 0.0 | 1.0 | 0.00 | 0.00 | 0.00 | 90 | 1019.6 |
| 20260901093050 | 70 | 0 | 0.0 | 2.0 | 0.00 | 0.00 | 0.00 | 90 | 1019.7 |
| 20260901092523 | 70 | 0 | 0.0 | 2.0 | 0.00 | 0.00 | 0.00 | 90 | 1019.6 |
| 20260901092023 | 70 | 115 | 0.0 | 2.0 | 0.00 | 0.00 | 0.00 | 90 | 1019.5 |
| 20260901091549 | 70 | 0 | 0.0 | 2.0 | 0.00 | 0.00 | 0.00 | 90 | 1019.5 |
| 20260901091024 | 70 | 0 | 0.0 | 2.0 | 0.00 | 0.00 | 0.00 | 90 | 1019.5 |
| 20260901090525 | 70 | 0 | 0.0 | 0.0 | 0.00 | 0.00 | 0.00 | 90 | 1019.4 |
| 20260901090050 | 70 | 0 | 0.0 | 2.0 | 0.00 | 0.00 | 0.00 | 90 | 1019.4 |
| 20260901085530 | 70 | 0 | 0.0 | 2.0 | 0.00 | 0.00 | 0.00 | 90 | 1019.4 |
| 20260901085027 | 71 | 0 | 0.0 | 0.0 | 0.00 | 0.00 | 0.00 | 90 | 1019.4 |
| 20260901084550 | 71 | 0 | 0.0 | 2.0 | 0.00 | 0.00 | 0.00 | 90 | 1019.4 |
| 20260901084029 | 71 | 0 | 0.0 | 2.0 | 0.00 | 0.00 | 0.00 | 90 | 1019.3 |
| 20260901083523 | 71 | 0 | 0.0 | 2.0 | 0.00 | 0.00 | 0.00 | 90 | 1019.3 |
| 20260901083049 | 71 | 0 | 0.0 | 2.0 | 0.00 | 0.00 | 0.00 | 90 | 1019.3 |
| 20260901082523 | 71 | 0 | 0.0 | 2.0 | 0.00 | 0.00 | 0.00 | 90 | 1019.3 |
| 20260901082023 | 71 | 115 | 0.0 | 2.0 | 0.00 | 0.00 | 0.00 | 90 | 1019.4 |
| 20260901081548 | 71 | 0 | 0.0 | 2.0 | 0.00 | 0.00 | 0.00 | 90 | 1019.3 |
| 20260901081025 | 71 | 0 | 0.0 | 2.0 | 0.00 | 0.00 | 0.00 | 90 | 1019.3 |
| 20260901080525 | 71 | 115 | 0.0 | 2.0 | 0.00 | 0.00 | 0.00 | 90 | 1019.2 |
| 20260901080049 | 71 | 115 | 1.0 | 2.0 | 0.00 | 0.00 | 0.00 | 90 | 1019.1 |
| 20260901075525 | 71 | 127 | 1.0 | 2.0 | 0.00 | 0.00 | 0.00 | 90 | 1019.2 |
| 20260901075026 | 71 | 0 | 0.0 | 2.0 | 0.00 | 0.00 | 0.00 | 90 | 1019.1 |
| 20260901074555 | 71 | 154 | 0.0 | 2.0 | 0.00 | 0.00 | 0.00 | 90 | 1019.1 |
| 20260901074025 | 71 | 0 | 0.0 | 2.0 | 0.00 | 0.00 | 0.00 | 90 | 1019.0 |
| 20260901073527 | 71 | 154 | 0.0 | 2.0 | 0.00 | 0.00 | 0.00 | 90 | 1019.1 |
| 20260901073057 | 71 | 168 | 0.0 | 2.0 | 0.00 | 0.00 | 0.00 | 89 | 1019.1 |
| 20260901072526 | 71 | 121 | 1.0 | 2.0 | 0.00 | 0.00 | 0.00 | 89 | 1019.1 |
| 20260901072025 | 71 | 108 | 0.0 | 2.0 | 0.00 | 0.00 | 0.00 | 89 | 1019.1 |
| 20260901071548 | 71 | 0 | 0.0 | 2.0 | 0.00 | 0.00 | 0.00 | 89 | 1019.2 |
| 20260901071025 | 71 | 0 | 0.0 | 2.0 | 0.00 | 0.00 | 0.00 | 89 | 1019.2 |
| 20260901070526 | 71 | 0 | 0.0 | 1.0 | 0.00 | 0.00 | 0.00 | 89 | 1019.3 |
| 20260901065528 | 72 | 0 | 0.0 | 0.0 | 0.00 | 0.00 | 0.00 | 89 | 1019.3 |
| 20260901065025 | 72 | 0 | 0.0 | 0.0 | 0.00 | 0.00 | 0.00 | 89 | 1019.3 |
| 20260901064553 | 72 | 0 | 0.0 | 2.0 | 0.00 | 0.00 | 0.00 | 89 | 1019.4 |
| 20260901064028 | 72 | 0 | 0.0 | 2.0 | 0.00 | 0.00 | 0.00 | 89 | 1019.4 |
| 20260901063525 | 72 | 108 | 0.0 | 2.0 | 0.00 | 0.00 | 0.00 | 89 | 1019.5 |
| 20260901063053 | 72 | 108 | 0.0 | 2.0 | 0.00 | 0.00 | 0.00 | 89 | 1019.6 |
| 20260901062524 | 72 | 0 | 0.0 | 2.0 | 0.00 | 0.00 | 0.00 | 89 | 1019.5 |
| 20260901062028 | 72 | 0 | 0.0 | 0.0 | 0.00 | 0.00 | 0.00 | 89 | 1019.6 |
| 20260901061547 | 72 | 0 | 0.0 | 1.0 | 0.00 | 0.00 | 0.00 | 89 | 1019.6 |
| 20260901061029 | 72 | 0 | 0.0 | 1.0 | 0.00 | 0.00 | 0.00 | 89 | 1019.6 |
| 20260901060530 | 72 | 0 | 0.0 | 2.0 | 0.00 | 0.00 | 0.00 | 88 | 1019.5 |
| 20260901060048 | 72 | 0 | 0.0 | 2.0 | 0.00 | 0.00 | 0.00 | 89 | 1019.7 |
| 20260901055524 | 72 | 109 | 0.0 | 2.0 | 0.00 | 0.00 | 0.00 | 88 | 1019.6 |
| 20260901055028 | 72 | 0 | 0.0 | 2.0 | 0.00 | 0.00 | 0.00 | 89 | 1019.6 |
| 20260901054559 | 72 | 108 | 0.0 | 2.0 | 0.00 | 0.00 | 0.00 | 88 | 1019.6 |
| 20260901054027 | 72 | 0 | 0.0 | 2.0 | 0.00 | 0.00 | 0.00 | 88 | 1019.6 |
| 20260901053524 | 72 | 0 | 0.0 | 2.0 | 0.00 | 0.00 | 0.00 | 89 | 1019.6 |
| 20260901053054 | 72 | 0 | 0.0 | 2.0 | 0.00 | 0.00 | 0.00 | 89 | 1019.6 |
| 20260901052526 | 72 | 108 | 0.0 | 2.0 | 0.00 | 0.00 | 0.00 | 89 | 1019.6 |
| 20260901052024 | 72 | 106 | 1.0 | 2.0 | 0.00 | 0.00 | 0.00 | 89 | 1019.6 |
| 20260901051547 | 72 | 112 | 0.0 | 1.0 | 0.00 | 0.00 | 0.00 | 89 | 1019.5 |
| 20260901051026 | 73 | 0 | 0.0 | 0.0 | 0.00 | 0.00 | 0.00 | 88 | 1019.6 |
| 20260901050524 | 73 | 0 | 0.0 | 0.0 | 0.00 | 0.00 | 0.00 | 88 | 1019.6 |
| 20260901050052 | 73 | 0 | 0.0 | 0.0 | 0.00 | 0.00 | 0.00 | 88 | 1019.6 |
| 20260901045523 | 73 | 0 | 0.0 | 0.0 | 0.00 | 0.00 | 0.00 | 88 | 1019.6 |
| 20260901045025 | 73 | 0 | 0.0 | 0.0 | 0.00 | 0.00 | 0.00 | 88 | 1019.5 |
| 20260901044559 | 73 | 0 | 0.0 | 0.0 | 0.00 | 0.00 | 0.00 | 88 | 1019.6 |
| 20260901044024 | 73 | 0 | 0.0 | 0.0 | 0.00 | 0.00 | 0.00 | 88 | 1019.5 |
| 20260901043527 | 73 | 0 | 0.0 | 0.0 | 0.00 | 0.00 | 0.00 | 87 | 1019.4 |
| 20260901043049 | 73 | 0 | 0.0 | 0.0 | 0.00 | 0.00 | 0.00 | 87 | 1019.4 |
| 20260901042527 | 73 | 0 | 0.0 | 2.0 | 0.00 | 0.00 | 0.00 | 87 | 1019.3 |
| 20260901042025 | 74 | 0 | 0.0 | 2.0 | 0.00 | 0.00 | 0.00 | 86 | 1019.4 |
| 20260901041546 | 74 | 0 | 0.0 | 2.0 | 0.00 | 0.00 | 0.00 | 86 | 1019.4 |
| 20260901041120 | 74 | 0 | 0.0 | 2.0 | 0.00 | 0.00 | 0.00 | 86 | 1019.5 |
| 20260901041025 | 74 | 0 | 0.0 | 2.0 | 0.00 | 0.00 | 0.00 | 86 | 1019.5 |
| 20260901040526 | 74 | 112 | 1.0 | 1.0 | 0.00 | 0.00 | 0.00 | 86 | 1019.5 |
| 20260901040051 | 74 | 123 | 1.0 | 2.0 | 0.00 | 0.00 | 0.00 | 86 | 1019.5 |
| 20260901035528 | 74 | 167 | 1.0 | 2.0 | 0.00 | 0.00 | 0.00 | 86 | 1019.5 |
| 20260901035023 | 74 | 0 | 0.0 | 1.0 | 0.00 | 0.00 | 0.00 | 86 | 1019.5 |
| 20260901034552 | 74 | 0 | 0.0 | 1.0 | 0.00 | 0.00 | 0.00 | 86 | 1019.5 |
| 20260901034028 | 75 | 0 | 0.0 | 2.0 | 0.00 | 0.00 | 0.00 | 85 | 1019.5 |
| 20260901033524 | 75 | 0 | 0.0 | 2.0 | 0.00 | 0.00 | 0.00 | 85 | 1019.4 |
| 20260901033104 | 75 | 0 | 0.0 | 2.0 | 0.00 | 0.00 | 0.00 | 85 | 1019.3 |
| 20260901032523 | 75 | 154 | 1.0 | 2.0 | 0.00 | 0.00 | 0.00 | 85 | 1019.4 |
| 20260901032025 | 75 | 144 | 0.0 | 2.0 | 0.00 | 0.00 | 0.00 | 85 | 1019.5 |
| 20260901031548 | 75 | 154 | 1.0 | 2.0 | 0.00 | 0.00 | 0.00 | 85 | 1019.5 |
| 20260901031024 | 75 | 116 | 1.0 | 2.0 | 0.00 | 0.00 | 0.00 | 84 | 1019.5 |
| 20260901030524 | 75 | 97 | 1.0 | 2.0 | 0.00 | 0.00 | 0.00 | 84 | 1019.5 |
| 20260901030055 | 75 | 0 | 1.0 | 2.0 | 0.00 | 0.00 | 0.00 | 84 | 1019.6 |
| 20260901025529 | 75 | 144 | 1.0 | 2.0 | 0.00 | 0.00 | 0.00 | 84 | 1019.6 |
| 20260901025024 | 75 | 98 | 0.0 | 2.0 | 0.00 | 0.00 | 0.00 | 84 | 1019.7 |
| 20260901024549 | 76 | 0 | 0.0 | 2.0 | 0.00 | 0.00 | 0.00 | 83 | 1019.6 |
| 20260901024025 | 76 | 97 | 0.0 | 2.0 | 0.00 | 0.00 | 0.00 | 83 | 1019.6 |
| 20260901023525 | 76 | 97 | 0.0 | 2.0 | 0.00 | 0.00 | 0.00 | 83 | 1019.6 |
| 20260901023050 | 76 | 0 | 0.0 | 2.0 | 0.00 | 0.00 | 0.00 | 83 | 1019.5 |
| 20260901022526 | 76 | 0 | 0.0 | 2.0 | 0.00 | 0.00 | 0.00 | 82 | 1019.5 |
| 20260901022025 | 77 | 0 | 0.0 | 2.0 | 0.00 | 0.00 | 0.00 | 81 | 1019.4 |
| 20260901021600 | 77 | 97 | 0.0 | 2.0 | 0.00 | 0.00 | 0.00 | 81 | 1019.4 |
| 20260901021024 | 77 | 115 | 1.0 | 2.0 | 0.00 | 0.00 | 0.00 | 81 | 1019.5 |
| 20260901020526 | 77 | 129 | 1.0 | 2.0 | 0.00 | 0.00 | 0.00 | 81 | 1019.4 |
| 20260901020053 | 77 | 164 | 0.0 | 2.0 | 0.00 | 0.00 | 0.00 | 81 | 1019.4 |
| 20260901015524 | 77 | 176 | 1.0 | 2.0 | 0.00 | 0.00 | 0.00 | 80 | 1019.3 |
| 20260901015025 | 77 | 0 | 0.0 | 2.0 | 0.00 | 0.00 | 0.00 | 80 | 1019.2 |
| 20260901014550 | 77 | 0 | 0.0 | 2.0 | 0.00 | 0.00 | 0.00 | 80 | 1019.2 |
| 20260901014024 | 78 | 294 | 0.0 | 2.0 | 0.00 | 0.00 | 0.00 | 80 | 1019.0 |
| 20260901013525 | 78 | 91 | 1.0 | 2.0 | 0.00 | 0.00 | 0.00 | 79 | 1019.1 |
| 20260901013053 | 78 | 106 | 0.0 | 1.0 | 0.00 | 0.00 | 0.00 | 79 | 1018.8 |
| 20260901012525 | 78 | 0 | 0.0 | 0.0 | 0.00 | 0.00 | 0.00 | 79 | 1018.8 |
| 20260901012028 | 78 | 0 | 0.0 | 2.0 | 0.00 | 0.00 | 0.00 | 79 | 1018.9 |
| 20260901011607 | 79 | 0 | 0.0 | 2.0 | 0.00 | 0.00 | 0.00 | 78 | 1018.8 |
| 20260901011027 | 79 | 106 | 0.0 | 2.0 | 0.00 | 0.00 | 0.00 | 78 | 1018.8 |
| 20260901010524 | 79 | 0 | 0.0 | 0.0 | 0.00 | 0.00 | 0.00 | 77 | 1018.7 |
| 20260901010100 | 79 | 0 | 0.0 | 1.0 | 0.00 | 0.00 | 0.00 | 75 | 1018.6 |
| 20260901005525 | 80 | 0 | 0.0 | 1.0 | 0.00 | 0.00 | 0.00 | 75 | 1018.4 |
| 20260901005027 | 80 | 0 | 0.0 | 1.0 | 0.00 | 0.00 | 0.00 | 74 | 1018.3 |
| 20260901004549 | 81 | 0 | 0.0 | 2.0 | 0.00 | 0.00 | 0.00 | 73 | 1018.3 |
| 20260901004026 | 81 | 0 | 0.0 | 2.0 | 0.00 | 0.00 | 0.00 | 72 | 1018.3 |
| 20260901003525 | 82 | 0 | 0.0 | 2.0 | 0.00 | 0.00 | 0.00 | 71 | 1018.3 |
| 20260901003048 | 82 | 0 | 0.0 | 2.0 | 0.00 | 0.00 | 0.00 | 70 | 1018.4 |
| 20260901002524 | 83 | 106 | 1.0 | 2.0 | 0.00 | 0.00 | 0.00 | 69 | 1018.2 |
| 20260901002025 | 83 | 98 | 1.0 | 2.0 | 0.00 | 0.00 | 0.00 | 68 | 1018.3 |
| 20260901001545 | 84 | 0 | 0.0 | 1.0 | 0.00 | 0.00 | 0.00 | 66 | 1018.2 |
| 20260901001027 | 85 | 0 | 0.0 | 3.0 | 0.00 | 0.00 | 0.00 | 65 | 1018.2 |
| 20260901000524 | 85 | 0 | 0.0 | 3.0 | 0.00 | 0.00 | 0.00 | 64 | 1018.3 |
| 20260901000047 | 86 | 108 | 0.0 | 2.0 | 0.00 | 0.00 | 0.00 | 63 | 1018.3 |
| 20260831235527 | 87 | 0 | 0.0 | 1.0 | 0.00 | 0.00 | 0.00 | 56 | 1018.2 |
| 20260831235023 | 88 | 0 | 0.0 | 1.0 | 0.00 | 0.00 | 0.00 | 57 | 1018.3 |
| 20260831234558 | 89 | 108 | 1.0 | 1.0 | 0.00 | 0.00 | 0.00 | 54 | 1018.3 |
| 20260831234026 | 89 | 108 | 1.0 | 1.0 | 0.00 | 0.00 | 0.00 | 51 | 1018.3 |
| 20260831233524 | 90 | 108 | 1.0 | 2.0 | 0.00 | 0.00 | 0.00 | 49 | 1018.2 |
| 20260831233046 | 90 | 110 | 1.0 | 2.0 | 0.00 | 0.00 | 0.00 | 47 | 1018.2 |
| 20260831232526 | 91 | 119 | 1.0 | 2.0 | 0.00 | 0.00 | 0.00 | 47 | 1018.4 |
| 20260831232025 | 91 | 105 | 1.0 | 3.0 | 0.00 | 0.00 | 0.00 | 49 | 1018.4 |
| 20260831231545 | 92 | 104 | 2.0 | 3.0 | 0.00 | 0.00 | 0.00 | 46 | 1018.4 |
| 20260831231026 | 92 | 98 | 1.0 | 3.0 | 0.00 | 0.00 | 0.00 | 46 | 1018.3 |
| 20260831230524 | 92 | 108 | 1.0 | 3.0 | 0.00 | 0.00 | 0.00 | 45 | 1018.4 |
| 20260831230051 | 92 | 98 | 2.0 | 3.0 | 0.00 | 0.00 | 0.00 | 46 | 1018.4 |
| 20260831225524 | 92 | 117 | 1.0 | 3.0 | 0.00 | 0.00 | 0.00 | 47 | 1018.4 |
| 20260831225025 | 92 | 0 | 1.0 | 3.0 | 0.00 | 0.00 | 0.00 | 47 | 1018.4 |
| 20260831224550 | 93 | 98 | 1.0 | 4.0 | 0.00 | 0.00 | 0.00 | 47 | 1018.5 |
| 20260831224025 | 93 | 95 | 1.0 | 4.0 | 0.00 | 0.00 | 0.00 | 45 | 1018.5 |
| 20260831223525 | 93 | 90 | 1.0 | 4.0 | 0.00 | 0.00 | 0.00 | 44 | 1018.4 |
| 20260831223051 | 93 | 89 | 1.0 | 4.0 | 0.00 | 0.00 | 0.00 | 44 | 1018.5 |
| 20260831222526 | 93 | 100 | 2.0 | 5.0 | 0.00 | 0.00 | 0.00 | 45 | 1018.4 |
| 20260831222025 | 93 | 90 | 3.0 | 5.0 | 0.00 | 0.00 | 0.00 | 44 | 1018.4 |
| 20260831221601 | 93 | 125 | 2.0 | 5.0 | 0.00 | 0.00 | 0.00 | 47 | 1018.4 |
| 20260831221025 | 94 | 123 | 3.0 | 5.0 | 0.00 | 0.00 | 0.00 | 45 | 1018.3 |
| 20260831220528 | 94 | 131 | 1.0 | 5.0 | 0.00 | 0.00 | 0.00 | 45 | 1018.5 |
| 20260831220054 | 94 | 123 | 1.0 | 5.0 | 0.00 | 0.00 | 0.00 | 47 | 1018.5 |
| 20260831215524 | 94 | 98 | 3.0 | 6.0 | 0.00 | 0.00 | 0.00 | 46 | 1018.6 |
| 20260831215025 | 94 | 84 | 1.0 | 6.0 | 0.00 | 0.00 | 0.00 | 47 | 1018.6 |
| 20260831214554 | 94 | 99 | 2.0 | 5.0 | 0.00 | 0.00 | 0.00 | 44 | 1018.6 |
| 20260831214025 | 94 | 146 | 2.0 | 5.0 | 0.00 | 0.00 | 0.00 | 44 | 1018.7 |
| 20260831213524 | 94 | 179 | 3.0 | 6.0 | 0.00 | 0.00 | 0.00 | 42 | 1018.8 |
| 20260831213044 | 94 | 121 | 3.0 | 6.0 | 0.00 | 0.00 | 0.00 | 42 | 1018.8 |
| 20260831212525 | 94 | 121 | 1.0 | 5.0 | 0.00 | 0.00 | 0.00 | 44 | 1018.9 |
| 20260831212025 | 94 | 52 | 3.0 | 6.0 | 0.00 | 0.00 | 0.00 | 43 | 1019.0 |
| 20260831211547 | 94 | 81 | 3.0 | 6.0 | 0.00 | 0.00 | 0.00 | 44 | 1018.9 |
| 20260831211024 | 94 | 80 | 4.0 | 6.0 | 0.00 | 0.00 | 0.00 | 43 | 1019.0 |
| 20260831210528 | 94 | 104 | 5.0 | 6.0 | 0.00 | 0.00 | 0.00 | 44 | 1019.1 |
| 20260831210047 | 95 | 78 | 1.0 | 5.0 | 0.00 | 0.00 | 0.00 | 47 | 1019.0 |
| 20260831205529 | 94 | 79 | 1.0 | 8.0 | 0.00 | 0.00 | 0.00 | 47 | 1019.0 |